Regional Weather Roundup
Issued by NWS Little Rock, AR

Home | Current Version | Previous Version | Text Only | Print | Product List | Glossary Off
Versions: 1 2 3 4 5 6 7 8 9 10 11 12 13 14 15 16 17 18 19 20 21 22 23 24 25 26 27 28 29 30 31 32 33 34 35 36 37 38 39 40 41 42 43 44 45

000
ASUS44 KLZK 052005
RWRLZK

WEATHER ROUNDUP FOR ARKANSAS
NATIONAL WEATHER SERVICE LITTLE ROCK AR
200 PM CST THU MAR 05 2015

NOTE: "FAIR" INDICATES FEW OR NO CLOUDS BELOW 12,000 FEET WITH NO
SIGNIFICANT WEATHER AND/OR OBSTRUCTIONS TO VISIBILITY.

ARZ001-003-010-029-052100-
NORTHWEST ARKANSAS

CITY           SKY/WX    TMP DP  RH WIND       PRES   REMARKS
FAYETTEVILLE   SUNNY     35  17  47 N9G18     30.51F WCI  28
FORT SMITH     SUNNY     40  17  39 VRB3G16   30.54F
HARRISON       SUNNY     32  10  40 N16G22    30.48  WCI  21
BENTONVILLE    SUNNY     36  12  38 N7G16     30.50F
ROGERS         SUNNY     34  14  43 NE3       30.50
SILOAM SPGS    SUNNY     36  16  44 N9        30.52F
HIGHFILL       SUNNY     37  15  40 NW7       30.50
SPRINGDALE     SUNNY     36  16  44 N7        30.51F
$$

ARZ004-005-016-052100-
NORTH CENTRAL ARKANSAS

CITY           SKY/WX    TMP DP  RH WIND       PRES   REMARKS
BATESVILLE     SUNNY     36  10  35 NW10G21   30.52S
FLIPPIN        SUNNY     34   9  35 N8G17     30.51F WCI  27
MTN HOME       SUNNY     33   8  35 N8G17     30.50F WCI  26
$$

ARZ040-041-052100-
WEST CENTRAL ARKANSAS

CITY           SKY/WX    TMP DP  RH WIND       PRES   REMARKS
MENA           SUNNY     37  19  48 N10G18    30.51F
MOUNT IDA      MOSUNNY   37  15  40 N8        30.49F
$$

ARZ009-017-025-026-028-052100-
NORTHEAST ARKANSAS

CITY           SKY/WX    TMP DP  RH WIND       PRES   REMARKS
CORNING        FAIR      32  10  40 N7        30.52F WCI  26
JONESBORO      SUNNY     31  10  41 N6        30.52  WCI  25
NEWPORT        SUNNY     31  14  49 CALM      30.54
WALNUT RIDGE   SUNNY     34  10  37 NE5       30.50F WCI  30
BLYTHEVILLE    SUNNY     27  15  61 NE14      30.54F WCI  16
$$

ARZ022-023-033-042-044-052100-
CENTRAL ARKANSAS

CITY           SKY/WX    TMP DP  RH WIND       PRES   REMARKS
LITTLE ROCK    MOSUNNY   37  11  34 N15       30.53
N LITTLE ROCK  MOSUNNY   37  14  38 N15G21    30.53
JACKSONVILLE   SUNNY     37  11  34 N13G20    30.51F
SEARCY         SUNNY     36  13  38 N12       30.53
HOT SPRINGS    SUNNY     38  14  37 N8G18     30.51F
RUSSELLVILLE   SUNNY     38  11  32 NW13      30.52
CLINTON        FAIR      36   9  32 NW15G21   30.53F
$$

ARZ036-052100-
EAST ARKANSAS

CITY           SKY/WX    TMP DP  RH WIND       PRES   REMARKS
WEST MEMPHIS   SUNNY     27  16  63 N15       30.53F WCI  15
$$

ARZ050-053-066-070-073-052100-
SOUTHWEST ARKANSAS

CITY           SKY/WX    TMP DP  RH WIND       PRES   REMARKS
ARKADELPHIA    FAIR      36  23  59 N9        30.54
CAMDEN         SUNNY     39  16  38 MISG      30.54F
TEXARKANA      SUNNY     38  23  55 NE14      30.53
EL DORADO      SUNNY     36  19  50 N10       30.52
DE QUEEN       SUNNY     41  20  43 N12G21    30.52
$$

ARZ056-057-069-052100-
SOUTHEAST ARKANSAS

CITY           SKY/WX    TMP DP  RH WIND       PRES   REMARKS
PINE BLUFF     SUNNY     32  13  45 N14       30.54  WCI  22
STUTTGART      SUNNY     34  14  44 N18       30.53F WCI  23
MONTICELLO     SUNNY     34  12  40 N9G21     30.51  WCI  27

$$




USA.gov is the U.S. government's official web portal to all federal, state and local government web resources and services.